Bookmark and Share
Track history (hours):
 

Valor

More information available from US FCC via Universal Licensing System and Coast Guard Vessel Documentation Center.

Last reported at 2014-Apr-23 04:23 UTC. Time now 2014-Apr-24 20:10 UTC.
Position N 38°02' W 122°09'.

Length 8 m; draft 5.5 m.

Type: Tug. MMSI: 367301480.

NotesDate/timePositionNaut miles runAvg speedWind from/ knotsBaromVisibWave heightAir tempDewpointWater temp
2014-Apr-23 04:23N 38°02' W 122°09'1 0.4
2014-Apr-23 02:20N 38°02' W 122°08'2 2.9
2014-Apr-23 01:30N 38°03' W 122°11'9 8.0
2014-Apr-23 00:20N 38°02' W 122°22'910.5
2014-Apr-22 23:32N 37°54' W 122°26'7 7.0
2014-Apr-22 22:33N 37°48' W 122°30'3 2.9
2014-Apr-22 21:33N 37°49' W 122°27'7 6.7
2014-Apr-22 20:33N 37°49' W 122°19'0 0.0
2014-Apr-22 19:33N 37°49' W 122°19'0 0.0
2014-Apr-22 18:33N 37°49' W 122°19'0 0.0
2014-Apr-22 17:33N 37°49' W 122°19'0 0.0
2014-Apr-22 16:33N 37°49' W 122°19'2 1.6
2014-Apr-22 15:33N 37°48' W 122°19'1 1.2
2014-Apr-22 14:33N 37°48' W 122°17'3 2.8
2014-Apr-22 13:33N 37°48' W 122°21'2 1.6
2014-Apr-22 12:33N 37°49' W 122°19'2 1.7
2014-Apr-22 11:33N 37°48' W 122°18'1 1.0
2014-Apr-22 10:33N 37°48' W 122°19'0 0.0
2014-Apr-22 09:33N 37°48' W 122°19'1 0.9
2014-Apr-22 08:33N 37°49' W 122°19'1 0.8
2014-Apr-22 07:33N 37°49' W 122°19'0 0.0
2014-Apr-22 06:33N 37°49' W 122°19'0 0.0
2014-Apr-22 05:33N 37°49' W 122°19'0 0.0
2014-Apr-22 04:34N 37°49' W 122°19'0 0.0
2014-Apr-22 03:33N 37°49' W 122°19'2 1.9
2014-Apr-22 02:33N 37°48' W 122°18'0 0.4
2014-Apr-22 01:33N 37°48' W 122°18'1 0.7
2014-Apr-22 00:33N 37°48' W 122°17'5 4.6
2014-Apr-21 23:33N 37°48' W 122°23'4 3.9
2014-Apr-21 22:33N 37°49' W 122°19'0 0.0
2014-Apr-21 21:33N 37°49' W 122°19'0 0.0
2014-Apr-21 20:33N 37°49' W 122°19'0 0.0
2014-Apr-21 19:33N 37°49' W 122°19'0 0.0
2014-Apr-21 18:33N 37°49' W 122°19'0 0.0
2014-Apr-21 17:33N 37°49' W 122°19'0 0.0
2014-Apr-21 16:33N 37°49' W 122°19'0 0.0
2014-Apr-21 15:33N 37°49' W 122°19'0 0.0
2014-Apr-21 14:33N 37°49' W 122°19'0 0.0
2014-Apr-21 13:33N 37°49' W 122°19'0 0.0
2014-Apr-21 12:33N 37°49' W 122°19'0 0.0
2014-Apr-21 11:33N 37°49' W 122°19'0 0.0
2014-Apr-21 10:33N 37°49' W 122°19'0 0.0
2014-Apr-21 09:33N 37°49' W 122°19'0 0.0
2014-Apr-21 08:33N 37°49' W 122°19'0 0.0
2014-Apr-21 07:33N 37°49' W 122°19'0 0.0
2014-Apr-21 06:33N 37°49' W 122°19'4 3.9
2014-Apr-21 05:33N 37°49' W 122°23'6 6.1
2014-Apr-21 04:33N 37°49' W 122°31'8 7.7
2014-Apr-21 03:33N 37°55' W 122°25'1 0.7
2014-Apr-21 02:33N 37°55' W 122°25'0 0.1
2014-Apr-21 01:33N 37°55' W 122°25'1 1.4
2014-Apr-21 00:33N 37°54' W 122°25'9 9.5
2014-Apr-20 23:33N 37°45' W 122°21'1 1.0
2014-Apr-20 22:34N 37°44' W 122°21'4 4.3
2014-Apr-20 21:33N 37°49' W 122°20'2 1.6
2014-Apr-20 20:33N 37°49' W 122°19'0 0.0
2014-Apr-20 19:33N 37°49' W 122°19'0 0.0
2014-Apr-20 18:33N 37°49' W 122°19'0 0.0
2014-Apr-20 17:33N 37°49' W 122°19'0 0.0
2014-Apr-20 16:33N 37°49' W 122°19'0 0.0
2014-Apr-20 15:33N 37°49' W 122°19'0 0.0
2014-Apr-20 14:33N 37°49' W 122°19'0 0.0
2014-Apr-20 13:33N 37°49' W 122°19'0 0.0
2014-Apr-20 12:33N 37°49' W 122°19'2 1.9
2014-Apr-20 11:33N 37°48' W 122°17'1 1.3
2014-Apr-20 10:33N 37°48' W 122°19'2 1.6
2014-Apr-20 09:33N 37°49' W 122°19'0 0.0
2014-Apr-20 08:33N 37°49' W 122°19'0 0.0
2014-Apr-20 07:33N 37°49' W 122°19'0 0.0
2014-Apr-20 06:33N 37°49' W 122°19'0 0.0
2014-Apr-20 05:33N 37°49' W 122°19'0 0.0
2014-Apr-20 04:33N 37°49' W 122°19'0 0.0
2014-Apr-20 03:33N 37°49' W 122°19'0 0.0
2014-Apr-20 02:33N 37°49' W 122°19'0 0.0
2014-Apr-20 01:33N 37°49' W 122°19'2 1.6
2014-Apr-20 00:33N 37°48' W 122°19'3 2.6
2014-Apr-19 23:33N 37°48' W 122°22'3 3.1
2014-Apr-19 22:33N 37°49' W 122°19'0 0.0
2014-Apr-19 21:33N 37°49' W 122°19'0 0.0
2014-Apr-19 20:33N 37°49' W 122°19'0 0.0
2014-Apr-19 19:33N 37°49' W 122°19'0 0.0
2014-Apr-19 18:33N 37°49' W 122°19'0 0.0
2014-Apr-19 17:33N 37°49' W 122°19'0 0.0
2014-Apr-19 16:33N 37°49' W 122°19'0 0.0
2014-Apr-19 15:33N 37°49' W 122°19'0 0.0
2014-Apr-19 14:33N 37°49' W 122°19'0 0.0
2014-Apr-19 13:33N 37°49' W 122°19'0 0.0
2014-Apr-19 12:34N 37°49' W 122°19'1 0.8
2014-Apr-19 11:33N 37°49' W 122°19'0 0.1
2014-Apr-19 10:33N 37°49' W 122°19'1 0.8
2014-Apr-19 09:33N 37°48' W 122°19'2 1.6
2014-Apr-19 08:33N 37°49' W 122°19'0 0.0
2014-Apr-19 07:33N 37°49' W 122°19'0 0.0
2014-Apr-19 06:33N 37°49' W 122°19'0 0.0
2014-Apr-19 05:33N 37°49' W 122°19'0 0.0
2014-Apr-19 04:33N 37°49' W 122°19'0 0.0
2014-Apr-19 03:33N 37°49' W 122°19'1 0.7
2014-Apr-19 02:33N 37°49' W 122°19'0 0.3
2014-Apr-19 01:33N 37°49' W 122°20'1 1.2
2014-Apr-19 00:33N 37°48' W 122°19'0 0.2
2014-Apr-18 23:33N 37°48' W 122°19'2 1.5
2014-Apr-18 22:33N 37°49' W 122°20'1 1.2
2014-Apr-18 21:33N 37°49' W 122°19'0 0.0
2014-Apr-18 20:33N 37°49' W 122°19'0 0.0
2014-Apr-18 19:33N 37°49' W 122°19'0 0.0
2014-Apr-18 18:33N 37°49' W 122°19'0 0.0
2014-Apr-18 17:33N 37°49' W 122°19'0 0.0
2014-Apr-18 16:33N 37°49' W 122°19'0 0.0
2014-Apr-18 15:33N 37°49' W 122°19'1 0.8
2014-Apr-18 14:33N 37°49' W 122°19'4 3.6
2014-Apr-18 13:33N 37°48' W 122°24'0 0.0
2014-Apr-18 12:33N 37°48' W 122°24'0 0.0
2014-Apr-18 11:33N 37°48' W 122°24'0 0.0
2014-Apr-18 10:33N 37°48' W 122°24'0 0.0
2014-Apr-18 09:33N 37°48' W 122°24'0 0.0
2014-Apr-18 08:33N 37°48' W 122°24'0 0.0
2014-Apr-18 07:33N 37°48' W 122°24'0 0.0
2014-Apr-18 06:33N 37°48' W 122°24'0 0.0
2014-Apr-18 05:33N 37°48' W 122°24'0 0.0
2014-Apr-18 04:33N 37°48' W 122°24'0 0.0
2014-Apr-18 03:33N 37°48' W 122°24'0 0.0
2014-Apr-18 02:33N 37°48' W 122°24'0 0.0
2014-Apr-18 01:33N 37°48' W 122°24'0 0.0
2014-Apr-18 00:33N 37°48' W 122°24'6 6.1
2014-Apr-17 23:33N 37°54' W 122°22'0 0.3
2014-Apr-17 22:33N 37°54' W 122°22'7 6.7
2014-Apr-17 21:33N 38°01' W 122°24'7 6.5
2014-Apr-17 20:30N 38°04' W 122°16'4 0.2
2014-Apr-17 02:30N 38°02' W 122°10'8 8.4
2014-Apr-17 01:33N 38°03' W 122°21'9 9.4
2014-Apr-17 00:33N 37°55' W 122°27'7 7.1
2014-Apr-16 23:32N 37°48' W 122°30'1 1.0
2014-Apr-16 22:33N 37°49' W 122°31'8 8.3
2014-Apr-16 21:33N 37°48' W 122°21'2 1.9
2014-Apr-16 20:33N 37°49' W 122°19'0 0.0
2014-Apr-16 19:33N 37°49' W 122°19'0 0.0
2014-Apr-16 18:33N 37°49' W 122°19'0 0.0
2014-Apr-16 17:33N 37°49' W 122°19'0 0.0
2014-Apr-16 16:33N 37°49' W 122°19'3 3.0
2014-Apr-16 15:33N 37°48' W 122°22'7 6.3
2014-Apr-16 14:27N 37°49' W 122°31'7 7.2
2014-Apr-16 13:26N 37°56' W 122°27'1010.8
2014-Apr-16 12:33N 38°03' W 122°19'9 8.8
2014-Apr-16 11:32N 38°02' W 122°08'13 0.7
2014-Apr-15 16:33N 38°02' W 121°52'14 1.1
2014-Apr-15 03:34N 38°02' W 122°09'1 0.6
2014-Apr-15 01:34N 38°02' W 122°08'0 0.0
2014-Apr-15 00:34N 38°02' W 122°08'3 3.4
2014-Apr-14 23:33N 38°03' W 122°12'8 8.1
2014-Apr-14 22:33N 38°02' W 122°22'9 8.7
2014-Apr-14 21:34N 37°54' W 122°27'5 2.7
2014-Apr-14 19:33N 37°49' W 122°26'2 1.7
2014-Apr-14 18:34N 37°48' W 122°24'0 0.0
2014-Apr-14 17:34N 37°48' W 122°24'0 0.0
2014-Apr-14 16:33N 37°48' W 122°24'0 0.0
2014-Apr-14 15:33N 37°48' W 122°24'0 0.0
2014-Apr-14 14:33N 37°48' W 122°24'7 7.2
2014-Apr-14 13:33N 37°55' W 122°25'5 2.7
2014-Apr-14 11:33N 37°50' W 122°24'4 4.2
2014-Apr-14 10:34N 37°49' W 122°19'0 0.0
2014-Apr-14 09:33N 37°49' W 122°19'0 0.0
2014-Apr-14 08:33N 37°49' W 122°19'0 0.0
2014-Apr-14 07:33N 37°49' W 122°19'0 0.0
2014-Apr-14 06:33N 37°49' W 122°19'0 0.0
2014-Apr-14 05:33N 37°49' W 122°19'5 0.6
2014-Apr-13 22:34N 37°49' W 122°24'5 4.5
2014-Apr-13 21:33N 37°49' W 122°19'0 0.0
2014-Apr-13 20:34N 37°49' W 122°19'0 0.0
2014-Apr-13 19:33N 37°49' W 122°19'0 0.0
2014-Apr-13 18:34N 37°49' W 122°19'0 0.0
2014-Apr-13 17:33N 37°49' W 122°19'0 0.0
2014-Apr-13 16:34N 37°49' W 122°19'0 0.0
2014-Apr-13 15:33N 37°49' W 122°19'0 0.0
2014-Apr-13 14:34N 37°49' W 122°19'2 1.6
2014-Apr-13 13:33N 37°48' W 122°20'0 0.2
2014-Apr-13 12:33N 37°49' W 122°20'4 4.4
2014-Apr-13 11:34N 37°52' W 122°24'4 3.4
2014-Apr-13 10:30N 37°55' W 122°25'0 0.0
2014-Apr-13 09:31N 37°55' W 122°25'0 0.0
2014-Apr-13 08:30N 37°55' W 122°25'0 0.0
2014-Apr-13 07:33N 37°55' W 122°25'0 0.0
2014-Apr-13 06:34N 37°55' W 122°25'0 0.0
2014-Apr-13 05:30N 37°55' W 122°25'8 8.0
2014-Apr-13 04:34N 37°48' W 122°21'  

Dump ship's entire track history

sailing weather and tide predictions

Valor — WDD8691 — position and weather